TimeEST,TemperatureF,Dew PointF,Humidity,Sea Level PressureIn,VisibilityMPH,Wind Direction,Wind SpeedMPH,Gust SpeedMPH,PrecipitationIn,Events,Conditions,WindDirDegrees,DateUTC
12:53 AM,27.0,19.9,75,30.31,10.0,SSW,6.9,-,N/A,,Clear,210,2012-11-29 05:53:00
1:53 AM,28.9,21.9,75,30.30,10.0,SW,9.2,-,N/A,,Clear,220,2012-11-29 06:53:00
2:53 AM,30.0,21.9,72,30.31,10.0,SSW,8.1,-,N/A,,Partly Cloudy,210,2012-11-29 07:53:00
3:53 AM,32.0,23.0,69,30.30,10.0,SW,8.1,-,N/A,,Overcast,220,2012-11-29 08:53:00
4:53 AM,32.0,23.0,69,30.31,10.0,SW,6.9,-,N/A,,Mostly Cloudy,220,2012-11-29 09:53:00
5:53 AM,33.1,24.1,70,30.30,10.0,SW,9.2,-,N/A,,Partly Cloudy,220,2012-11-29 10:53:00
6:53 AM,33.1,24.1,70,30.30,9.0,SSW,9.2,-,N/A,,Partly Cloudy,210,2012-11-29 11:53:00
7:53 AM,33.1,24.1,70,30.31,8.0,SW,8.1,-,N/A,,Partly Cloudy,220,2012-11-29 12:53:00
8:53 AM,34.0,24.1,67,30.30,7.0,SW,10.4,-,N/A,,Clear,220,2012-11-29 13:53:00
9:53 AM,37.0,25.0,62,30.31,8.0,SW,10.4,-,N/A,,Clear,220,2012-11-29 14:53:00
10:53 AM,41.0,26.1,55,30.30,9.0,SW,9.2,-,N/A,,Clear,220,2012-11-29 15:53:00
11:53 AM,45.0,26.1,48,30.28,10.0,SW,13.8,-,N/A,,Clear,230,2012-11-29 16:53:00
12:53 PM,48.0,27.0,44,30.25,10.0,SW,16.1,-,N/A,,Clear,220,2012-11-29 17:53:00
1:53 PM,48.9,27.0,43,30.22,10.0,SW,12.7,-,N/A,,Clear,220,2012-11-29 18:53:00
2:53 PM,48.9,27.0,43,30.21,10.0,SSW,13.8,-,N/A,,Clear,210,2012-11-29 19:53:00
3:53 PM,48.0,27.0,44,30.21,10.0,SSW,12.7,-,N/A,,Clear,210,2012-11-29 20:53:00
4:53 PM,44.1,27.0,51,30.21,10.0,SSW,10.4,-,N/A,,Clear,200,2012-11-29 21:53:00
5:53 PM,39.0,27.0,62,30.22,10.0,SSW,8.1,-,N/A,,Clear,200,2012-11-29 22:53:00
6:53 PM,37.0,26.1,65,30.22,10.0,SSW,6.9,-,N/A,,Clear,200,2012-11-29 23:53:00
7:53 PM,35.1,26.1,70,30.24,10.0,South,3.5,-,N/A,,Clear,170,2012-11-30 00:53:00
8:53 PM,35.1,26.1,70,30.24,9.0,Calm,Calm,-,N/A,,Clear,0,2012-11-30 01:53:00
9:53 PM,34.0,26.1,73,30.24,9.0,Calm,Calm,-,N/A,,Clear,0,2012-11-30 02:53:00
10:53 PM,30.9,24.1,76,30.24,8.0,Calm,Calm,-,N/A,,Clear,0,2012-11-30 03:53:00
11:53 PM,33.1,25.0,72,30.24,7.0,South,3.5,-,N/A,,Scattered Clouds,190,2012-11-30 04:53:00